Total_Precipitation_Accumulation
0.71 0.62 0.78 0.83 0.75 0.82 1.11 1.00 0.91 0.59 0.51 0.54 0.55 0.55 0.51 0.50 0.48 0.48 0.54 0.58 0.59 0.61 0.62 0.62 0.65 0.64 0.63 0.66 0.76 0.86 0.93 0.96 0.95 0.98 1.03 1.05 1.09 1.12 1.10 1.11 1.13 1.16 1.18 1.14
0.67 0.56 0.66 0.70 0.62 0.62 0.65 0.63 0.62 0.49 0.55 0.50 0.48 0.45 0.44 0.44 0.43 0.44 0.48 0.53 0.54 0.55 0.54 0.55 0.61 0.65 0.63 0.64 0.71 0.78 0.88 0.95 0.92 0.87 0.89 1.00 1.09 1.14 1.16 1.14 1.15 1.19 1.23 1.25
0.79 0.55 0.69 0.83 0.71 0.60 0.58 0.57 0.55 0.65 0.63 0.46 0.45 0.44 0.48 0.46 0.44 0.45 0.46 0.47 0.49 0.50 0.50 0.53 0.59 0.61 0.61 0.65 0.71 0.72 0.81 0.91 0.93 0.91 0.93 0.96 1.05 1.15 1.23 1.24 1.25 1.30 1.37 1.42
0.91 0.72 0.96 0.83 0.49 0.40 0.42 0.49 0.49 0.53 0.49 0.45 0.51 0.49 0.44 0.42 0.41 0.41 0.41 0.42 0.42 0.43 0.43 0.44 0.49 0.54 0.58 0.60 0.64 0.66 0.71 0.81 0.87 0.91 1.00 1.08 1.13 1.16 1.20 1.26 1.34 1.44 1.51 1.52
0.94 0.79 0.63 0.43 0.33 0.40 0.43 0.50 0.42 0.38 0.34 0.33 0.35 0.39 0.39 0.34 0.33 0.37 0.41 0.44 0.45 0.43 0.45 0.43 0.43 0.48 0.53 0.59 0.64 0.67 0.71 0.81 0.89 0.92 0.96 1.05 1.19 1.25 1.26 1.29 1.35 1.41 1.42 1.37
0.95 0.86 0.59 0.45 0.27 0.27 0.37 0.56 0.36 0.32 0.31 0.28 0.27 0.35 0.41 0.36 0.32 0.29 0.31 0.38 0.43 0.42 0.42 0.44 0.45 0.50 0.56 0.62 0.70 0.80 0.87 0.93 1.02 1.07 1.08 1.05 1.11 1.18 1.19 1.13 1.10 1.03 0.98 0.94
0.87 0.85 0.55 0.43 0.25 0.21 0.51 0.67 0.35 0.33 0.33 0.30 0.33 0.38 0.32 0.27 0.28 0.30 0.30 0.34 0.41 0.45 0.47 0.50 0.55 0.60 0.69 0.75 0.85 0.94 0.99 1.01 1.08 1.11 1.10 1.06 0.96 0.87 0.83 0.77 0.73 0.72 0.69 0.65
0.65 0.85 0.65 0.34 0.28 0.54 0.69 0.41 0.31 0.29 0.29 0.30 0.28 0.23 0.19 0.18 0.20 0.23 0.27 0.33 0.42 0.48 0.52 0.55 0.61 0.66 0.72 0.79 0.84 0.85 0.89 0.87 0.87 0.82 0.73 0.69 0.69 0.65 0.64 0.62 0.58 0.58 0.59 0.62
0.68 0.76 0.62 0.43 0.48 0.51 0.44 0.36 0.29 0.30 0.29 0.28 0.24 0.21 0.19 0.17 0.17 0.17 0.21 0.27 0.32 0.40 0.43 0.44 0.48 0.54 0.61 0.62 0.60 0.59 0.58 0.56 0.55 0.54 0.51 0.51 0.55 0.59 0.60 0.61 0.60 0.59 0.58 0.60
0.49 0.45 0.35 0.31 0.27 0.25 0.27 0.32 0.29 0.27 0.28 0.27 0.28 0.24 0.22 0.20 0.19 0.19 0.19 0.23 0.28 0.32 0.35 0.36 0.37 0.42 0.49 0.48 0.46 0.47 0.48 0.48 0.48 0.50 0.49 0.50 0.54 0.57 0.62 0.62 0.62 0.61 0.62 0.61
0.39 0.32 0.27 0.24 0.22 0.23 0.23 0.22 0.21 0.21 0.23 0.27 0.28 0.27 0.26 0.25 0.25 0.25 0.25 0.27 0.31 0.37 0.38 0.39 0.38 0.38 0.40 0.41 0.42 0.47 0.47 0.47 0.47 0.49 0.52 0.53 0.56 0.61 0.67 0.67 0.71 0.73 0.70 0.64
0.46 0.37 0.41 0.35 0.28 0.26 0.25 0.25 0.25 0.24 0.23 0.24 0.28 0.32 0.29 0.28 0.28 0.29 0.30 0.30 0.33 0.38 0.42 0.44 0.43 0.43 0.43 0.44 0.45 0.51 0.53 0.53 0.53 0.55 0.57 0.62 0.64 0.65 0.72 0.75 0.79 0.81 0.76 0.71
0.42 0.33 0.30 0.28 0.25 0.26 0.29 0.30 0.30 0.30 0.30 0.28 0.26 0.27 0.28 0.28 0.28 0.29 0.29 0.31 0.36 0.41 0.45 0.47 0.47 0.48 0.50 0.50 0.50 0.54 0.57 0.61 0.60 0.59 0.60 0.64 0.70 0.71 0.72 0.74 0.78 0.83 0.84 0.78
0.28 0.26 0.28 0.27 0.30 0.28 0.27 0.27 0.27 0.26 0.26 0.26 0.26 0.24 0.24 0.27 0.27 0.29 0.33 0.38 0.40 0.42 0.43 0.45 0.45 0.48 0.53 0.55 0.53 0.54 0.54 0.62 0.67 0.65 0.65 0.67 0.72 0.77 0.76 0.75 0.75 0.76 0.79 0.82
0.25 0.29 0.36 0.32 0.27 0.26 0.25 0.24 0.23 0.25 0.24 0.24 0.25 0.24 0.25 0.27 0.30 0.33 0.35 0.36 0.38 0.39 0.41 0.42 0.43 0.46 0.50 0.54 0.55 0.53 0.53 0.59 0.67 0.71 0.71 0.71 0.73 0.77 0.77 0.76 0.77 0.75 0.73 0.79
0.23 0.21 0.20 0.21 0.23 0.22 0.21 0.22 0.23 0.24 0.24 0.23 0.23 0.25 0.27 0.29 0.30 0.31 0.32 0.34 0.38 0.43 0.45 0.44 0.44 0.46 0.46 0.48 0.50 0.50 0.53 0.64 0.69 0.71 0.72 0.71 0.70 0.72 0.73 0.74 0.74 0.71 0.71 0.75
0.22 0.21 0.20 0.20 0.20 0.21 0.23 0.26 0.29 0.28 0.27 0.26 0.27 0.27 0.27 0.27 0.26 0.28 0.31 0.34 0.39 0.45 0.46 0.45 0.46 0.44 0.44 0.46 0.48 0.48 0.51 0.59 0.67 0.67 0.67 0.69 0.70 0.71 0.73 0.73 0.71 0.68 0.70 0.79
0.24 0.26 0.26 0.27 0.27 0.27 0.27 0.27 0.27 0.27 0.28 0.28 0.27 0.26 0.27 0.29 0.30 0.31 0.34 0.33 0.31 0.33 0.38 0.42 0.45 0.46 0.46 0.48 0.50 0.51 0.54 0.58 0.61 0.64 0.64 0.66 0.69 0.69 0.71 0.71 0.69 0.68 0.70 0.77
0.22 0.23 0.24 0.25 0.28 0.30 0.31 0.33 0.33 0.32 0.31 0.30 0.29 0.30 0.30 0.31 0.33 0.33 0.32 0.28 0.28 0.32 0.39 0.41 0.44 0.42 0.44 0.48 0.54 0.55 0.56 0.58 0.59 0.61 0.62 0.65 0.66 0.63 0.64 0.65 0.65 0.66 0.67 0.70
0.22 0.24 0.25 0.26 0.28 0.31 0.33 0.32 0.32 0.31 0.31 0.31 0.30 0.29 0.29 0.31 0.32 0.32 0.30 0.31 0.38 0.45 0.46 0.44 0.40 0.39 0.41 0.45 0.52 0.53 0.53 0.55 0.57 0.59 0.59 0.60 0.61 0.60 0.59 0.60 0.61 0.61 0.62 0.65
0.21 0.23 0.24 0.26 0.28 0.30 0.32 0.32 0.31 0.32 0.32 0.30 0.30 0.32 0.32 0.31 0.30 0.29 0.28 0.32 0.37 0.38 0.38 0.37 0.36 0.38 0.42 0.46 0.49 0.48 0.49 0.51 0.54 0.56 0.58 0.60 0.60 0.59 0.58 0.59 0.59 0.60 0.61 0.63
0.24 0.24 0.24 0.24 0.24 0.25 0.26 0.26 0.27 0.28 0.28 0.29 0.29 0.29 0.29 0.28 0.26 0.25 0.27 0.34 0.37 0.36 0.34 0.34 0.38 0.45 0.50 0.51 0.47 0.45 0.47 0.50 0.53 0.55 0.58 0.59 0.61 0.60 0.58 0.58 0.59 0.58 0.58 0.59
0.25 0.25 0.26 0.27 0.27 0.26 0.24 0.24 0.26 0.27 0.28 0.28 0.29 0.29 0.29 0.28 0.26 0.26 0.30 0.30 0.30 0.31 0.31 0.35 0.41 0.46 0.48 0.46 0.43 0.42 0.45 0.47 0.50 0.53 0.56 0.59 0.61 0.61 0.60 0.58 0.57 0.55 0.54 0.54
0.23 0.24 0.24 0.23 0.20 0.19 0.20 0.22 0.24 0.26 0.26 0.26 0.27 0.27 0.26 0.25 0.22 0.23 0.27 0.28 0.27 0.28 0.30 0.32 0.35 0.37 0.38 0.36 0.36 0.37 0.39 0.41 0.44 0.47 0.48 0.50 0.51 0.53 0.54 0.53 0.53 0.51 0.50 0.51
0.18 0.19 0.19 0.18 0.18 0.17 0.18 0.17 0.17 0.19 0.20 0.19 0.19 0.19 0.20 0.22 0.25 0.23 0.22 0.21 0.22 0.25 0.25 0.25 0.26 0.27 0.28 0.28 0.31 0.34 0.36 0.38 0.42 0.45 0.44 0.43 0.44 0.46 0.46 0.47 0.48 0.48 0.46 0.46
0.12 0.12 0.12 0.13 0.14 0.15 0.15 0.15 0.16 0.15 0.15 0.14 0.14 0.15 0.15 0.15 0.16 0.16 0.17 0.17 0.18 0.20 0.21 0.20 0.20 0.21 0.23 0.24 0.27 0.30 0.32 0.33 0.35 0.37 0.37 0.38 0.38 0.39 0.40 0.40 0.41 0.43 0.43 0.43
0.09 0.09 0.09 0.08 0.08 0.09 0.11 0.12 0.14 0.14 0.14 0.17 0.18 0.16 0.15 0.14 0.13 0.14 0.15 0.16 0.16 0.17 0.18 0.18 0.20 0.22 0.23 0.24 0.26 0.27 0.28 0.30 0.31 0.34 0.35 0.36 0.37 0.38 0.37 0.37 0.38 0.38 0.39 0.38